Location: Maiden
(35.5760°N, 81.2120°W)
Time: 03:27:56
(UTC-04:00)

Vanguard 2 - Pass Details

Date: 05 August 2020
Orbit: 553 x 2937 km, 32.9° (Epoch: 20 September)

Event Time Altitude Azimuth Distance (km) Brightness Sun altitude
Rises 05:05:23 0° 277° (W) 4,099 - -17.1°
Reaches altitude 10° 05:09:15 10° 264° (W) 2,733 - -16.4°
Maximum altitude 05:13:58 23° 214° (SW) 1,588 - -15.7°
Exits shadow 05:13:59 23° 214° (SW) 1,586 8.6 -15.6°
Drops below altitude 10° 05:17:34 10° 161° (SSE) 2,023 9.5 -15.1°
Sets 05:19:58 0° 145° (SE) 2,797 10.4 -14.6°
